| time (UTC) | temp C | wind direction | speed KPH | gust KPH | rain 1hr cm | rain 24hr cm | rain mn cm | humidity % | barometer mb |
| 20260508121516 | 8 | 0.0 | 1.6 | 0.00 | 0.10 | 0.00 | 96 | 1017.4 | |
| 20260508120017 | 7 | 0.0 | 0.0 | 0.00 | 0.10 | 0.00 | 95 | 1017.0 | |
| 20260508114516 | 6 | 0.0 | 1.6 | 0.00 | 0.10 | 0.00 | 95 | 1016.8 | |
| 20260508113016 | 6 | 0.0 | 0.0 | 0.00 | 0.10 | 0.00 | 95 | 1016.7 | |
| 20260508111517 | 6 | 0.0 | 0.0 | 0.00 | 0.10 | 0.00 | 94 | 1016.4 | |
| 20260508110016 | 6 | 0.0 | 0.0 | 0.00 | 0.10 | 0.00 | 94 | 1016.1 | |
| 20260508104516 | 6 | 0.0 | 0.0 | 0.00 | 0.10 | 0.00 | 94 | 1015.9 | |
| 20260508103017 | 6 | 0.0 | 0.0 | 0.00 | 0.10 | 0.00 | 94 | 1015.7 | |
| 20260508101516 | 6 | 0.0 | 0.0 | 0.00 | 0.10 | 0.00 | 94 | 1015.6 | |
| 20260508100036 | 6 | 0.0 | 0.0 | 0.00 | 0.10 | 0.00 | 94 | 1015.4 | |
| 20260508094516 | 6 | 0.0 | 0.0 | 0.00 | 0.10 | 0.00 | 94 | 1015.2 | |
| 20260508093016 | 6 | 0.0 | 0.0 | 0.00 | 0.10 | 0.00 | 94 | 1015.1 | |
| 20260508091516 | 7 | 0.0 | 0.0 | 0.00 | 0.10 | 0.00 | 94 | 1015.0 | |
| 20260508090016 | 7 | 0.0 | 1.6 | 0.00 | 0.10 | 0.00 | 95 | 1014.8 | |
| 20260508084516 | 7 | 0.0 | 3.2 | 0.00 | 0.10 | 0.00 | 94 | 1014.7 | |
| 20260508083016 | 7 | 0.0 | 3.2 | 0.00 | 0.10 | 0.00 | 94 | 1014.6 | |
| 20260508081516 | 7 | 0.0 | 3.2 | 0.00 | 0.10 | 0.00 | 94 | 1014.3 | |
| 20260508080016 | 7 | 0.0 | 0.0 | 0.00 | 0.10 | 0.00 | 94 | 1014.3 | |
| 20260508074516 | 7 | 0.0 | 0.0 | 0.00 | 0.10 | 0.00 | 94 | 1014.0 | |
| 20260508073016 | 7 | 0.0 | 4.8 | 0.00 | 0.10 | 0.00 | 94 | 1014.0 | |
| 20260508071516 | 7 | 0.0 | 0.0 | 0.00 | 0.10 | 0.00 | 93 | 1013.7 | |
| 20260508070016 | 7 | 0.0 | 0.0 | 0.00 | 0.10 | 0.00 | 93 | 1013.7 | |
| 20260508064516 | 7 | 0.0 | 0.0 | 0.00 | 0.10 | 0.00 | 93 | 1013.8 | |
| 20260508063036 | 7 | 0.0 | 0.0 | 0.00 | 0.10 | 0.00 | 93 | 1013.6 | |
| 20260508061516 | 7 | 0.0 | 0.0 | 0.00 | 0.10 | 0.00 | 93 | 1013.4 | |
| 20260508060016 | 7 | 0.0 | 0.0 | 0.00 | 0.10 | 0.00 | 93 | 1013.2 | |
| 20260508054516 | 7 | 0.0 | 0.0 | 0.00 | 0.10 | 0.00 | 92 | 1013.1 | |
| 20260508053016 | 7 | 0.0 | 0.0 | 0.00 | 0.10 | 0.00 | 92 | 1013.1 | |
| 20260508051556 | 8 | 0.0 | 0.0 | 0.00 | 0.10 | 0.00 | 92 | 1013.1 | |
| 20260508050016 | 8 | 0.0 | 0.0 | 0.00 | 0.10 | 0.00 | 92 | 1013.1 | |
| 20260508044515 | 8 | 0.0 | 0.0 | 0.00 | 0.10 | 0.00 | 92 | 1013.0 | |
| 20260508043016 | 8 | 0.0 | 0.0 | 0.00 | 0.10 | 0.00 | 92 | 1012.9 | |
| 20260508041516 | 8 | 0.0 | 1.6 | 0.00 | 0.10 | 0.00 | 92 | 1012.8 | |
| 20260508040015 | 8 | 0.0 | 0.0 | 0.00 | 0.10 | 0.10 | 92 | 1012.6 | |
| 20260508034516 | 9 | 0.0 | 0.0 | 0.00 | 0.10 | 0.10 | 92 | 1012.5 | |
| 20260508033016 | 9 | 0.0 | 0.0 | 0.00 | 0.10 | 0.10 | 92 | 1012.6 | |
| 20260508031516 | 9 | 0.0 | 0.0 | 0.00 | 0.10 | 0.10 | 92 | 1012.6 | |
| 20260508030016 | 9 | 0.0 | 0.0 | 0.00 | 0.10 | 0.10 | 92 | 1012.4 | |
| 20260508024516 | 9 | 0.0 | 0.0 | 0.00 | 0.10 | 0.10 | 92 | 1012.4 | |
| 20260508023016 | 9 | 0.0 | 0.0 | 0.00 | 0.10 | 0.10 | 91 | 1012.3 | |
| 20260508021517 | 9 | 0.0 | 0.0 | 0.00 | 0.10 | 0.10 | 91 | 1012.4 | |
| 20260508020016 | 10 | 0.0 | 0.0 | 0.00 | 0.10 | 0.10 | 90 | 1012.2 | |
| 20260508014516 | 10 | 0.0 | 0.0 | 0.00 | 0.10 | 0.10 | 90 | 1011.9 | |
| 20260508013016 | 10 | 0.0 | 0.0 | 0.00 | 0.10 | 0.10 | 90 | 1012.1 | |
| 20260508011516 | 10 | 0.0 | 0.0 | 0.00 | 0.10 | 0.10 | 90 | 1012.1 | |
| 20260508010016 | 11 | 0.0 | 0.0 | 0.00 | 0.10 | 0.10 | 90 | 1011.8 | |
| 20260508004516 | 11 | 0.0 | 0.0 | 0.00 | 0.10 | 0.10 | 89 | 1011.7 | |
| 20260508003016 | 11 | 0.0 | 0.0 | 0.00 | 0.10 | 0.10 | 89 | 1011.6 | |
| 20260508001516 | 11 | 0.0 | 0.0 | 0.00 | 0.10 | 0.10 | 88 | 1011.5 | |
| 20260508000016 | 11 | 0.0 | 1.6 | 0.00 | 0.10 | 0.10 | 88 | 1011.1 | |
| 20260507234516 | 11 | 0.0 | 1.6 | 0.00 | 0.10 | 0.10 | 87 | 1011.1 | |
| 20260507233016 | 11 | 0.0 | 1.6 | 0.00 | 0.10 | 0.10 | 86 | 1010.9 | |
| 20260507231516 | 12 | 0.0 | 3.2 | 0.00 | 0.10 | 0.10 | 86 | 1010.6 | |
| 20260507230016 | 12 | 0.0 | 1.6 | 0.00 | 0.10 | 0.10 | 87 | 1010.7 | |
| 20260507224516 | 12 | 0.0 | 3.2 | 0.00 | 0.10 | 0.10 | 86 | 1010.5 | |
| 20260507223015 | 12 | 0.0 | 4.8 | 0.00 | 0.10 | 0.10 | 86 | 1010.7 | |
| 20260507221516 | 12 | 0.0 | 3.2 | 0.00 | 0.10 | 0.10 | 86 | 1010.5 | |
| 20260507220016 | 11 | 0.0 | 3.2 | 0.00 | 0.10 | 0.10 | 85 | 1010.3 | |
| 20260507214516 | 12 | 0.0 | 4.8 | 0.00 | 0.10 | 0.10 | 86 | 1010.6 | |
| 20260507213016 | 12 | 0 | 1.6 | 4.8 | 0.00 | 0.10 | 0.10 | 85 | 1010.4 |
| 20260507211515 | 12 | 0 | 1.6 | 6.4 | 0.03 | 0.10 | 0.10 | 84 | 1010.2 |
| 20260507210015 | 12 | 0.0 | 3.2 | 0.05 | 0.10 | 0.10 | 86 | 1010.4 | |
| 20260507204515 | 12 | 0.0 | 1.6 | 0.08 | 0.10 | 0.10 | 85 | 1010.6 | |
| 20260507203015 | 12 | 0.0 | 1.6 | 0.08 | 0.10 | 0.10 | 84 | 1010.8 | |
| 20260507201515 | 12 | 0.0 | 3.2 | 0.05 | 0.08 | 0.08 | 83 | 1010.5 | |
| 20260507200015 | 13 | 0.0 | 1.6 | 0.03 | 0.05 | 0.05 | 80 | 1010.8 | |
| 20260507194515 | 13 | 0.0 | 1.6 | 0.00 | 0.03 | 0.03 | 77 | 1010.7 | |
| 20260507193015 | 13 | 0.0 | 3.2 | 0.00 | 0.03 | 0.03 | 77 | 1010.9 | |
| 20260507191515 | 13 | 0.0 | 3.2 | 0.00 | 0.03 | 0.03 | 77 | 1011.3 | |
| 20260507190036 | 13 | 0.0 | 1.6 | 0.00 | 0.03 | 0.03 | 77 | 1011.1 | |
| 20260507184515 | 13 | 0.0 | 1.6 | 0.00 | 0.03 | 0.03 | 76 | 1011.2 | |
| 20260507183015 | 13 | 0.0 | 0.0 | 0.00 | 0.03 | 0.03 | 76 | 1011.3 | |
| 20260507181515 | 13 | 0.0 | 3.2 | 0.00 | 0.03 | 0.03 | 76 | 1011.3 | |
| 20260507180035 | 13 | 0 | 1.6 | 3.2 | 0.00 | 0.03 | 0.03 | 77 | 1011.2 |
| 20260507174517 | 13 | 0.0 | 3.2 | 0.00 | 0.03 | 0.03 | 76 | 1011.5 | |
| 20260507173017 | 12 | 0 | 1.6 | 4.8 | 0.00 | 0.03 | 0.03 | 78 | 1011.6 |
| 20260507171517 | 12 | 0 | 1.6 | 4.8 | 0.00 | 0.03 | 0.03 | 80 | 1012.0 |
| 20260507170017 | 12 | 0 | 1.6 | 3.2 | 0.00 | 0.03 | 0.03 | 82 | 1012.1 |
| 20260507164517 | 12 | 0.0 | 1.6 | 0.00 | 0.03 | 0.03 | 84 | 1012.2 | |
| 20260507163017 | 12 | 0.0 | 3.2 | 0.00 | 0.03 | 0.03 | 85 | 1012.2 | |
| 20260507161517 | 12 | 0 | 1.6 | 4.8 | 0.00 | 0.03 | 0.03 | 86 | 1012.5 |
| 20260507160017 | 12 | 0.0 | 3.2 | 0.03 | 0.03 | 0.03 | 86 | 1012.6 | |
| 20260507154517 | 12 | 0.0 | 3.2 | 0.03 | 0.03 | 0.03 | 84 | 1012.8 | |
| 20260507153017 | 13 | 0.0 | 3.2 | 0.03 | 0.03 | 0.03 | 84 | 1012.7 | |
| 20260507151517 | 13 | 0.0 | 1.6 | 0.03 | 0.03 | 0.03 | 83 | 1012.4 | |
| 20260507150017 | 13 | 0 | 1.6 | 6.4 | 0.00 | 0.00 | 0.00 | 80 | 1012.7 |
| 20260507144517 | 13 | 0 | 1.6 | 6.4 | 0.00 | 0.03 | 0.00 | 78 | 1012.3 |
| 20260507143017 | 13 | 0 | 1.6 | 4.8 | 0.00 | 0.08 | 0.00 | 79 | 1012.5 |
| 20260507141536 | 13 | 0 | 1.6 | 4.8 | 0.00 | 0.13 | 0.00 | 79 | 1012.7 |
| 20260507140017 | 13 | 0 | 1.6 | 4.8 | 0.00 | 0.15 | 0.00 | 79 | 1012.7 |
| 20260507134517 | 13 | 0 | 1.6 | 4.8 | 0.00 | 0.20 | 0.00 | 78 | 1012.7 |
| 20260507133016 | 14 | 0 | 1.6 | 8.0 | 0.00 | 0.20 | 0.00 | 77 | 1012.6 |
| 20260507131517 | 14 | 0 | 1.6 | 6.4 | 0.00 | 0.20 | 0.00 | 79 | 1012.4 |
| 20260507130017 | 13 | 0 | 1.6 | 4.8 | 0.00 | 0.20 | 0.00 | 83 | 1012.3 |
| 20260507124516 | 13 | 0 | 1.6 | 4.8 | 0.00 | 0.20 | 0.00 | 84 | 1012.5 |
| 20260507123017 | 13 | 0 | 1.6 | 4.8 | 0.00 | 0.20 | 0.00 | 84 | 1012.5 |